LKLNLKTB

Guest
Details From LKLN - Plzen - Line
To LKTB - Turany
Flight Number -
Tags generated
Created
Modified
Stats Distance 138 nm / 255 km
Max Altitude 6,000 ft / 1,829 m
Waypoints 3
Social Downloads 1
Likes 0
Share VATSIM

Download

Looking for another format? Having issues loading an existing format? Contact us
Advertisement - Login to hide

Notes

Basic altitude profile: - Ascent Rate: 1000ft/min - Ascent Speed: 120kts - Cruise Altitude: 6000ft - Cruise Speed: 150kts - Descent Rate: 800ft/min - Descent Speed: 100kts

Route

LKLN NEPOV LKTB

ID Type Via Altitude Latitude Longitude Leg Dist Tot Dist Heading (true) Name
O LKLN APT - 0 ft / 0 m 49.67523˚ 13.27448˚ - 0 nm - Plzen - Line
NEPOV FIX - 6,000 ft / 1,829 m 49.62467˚ 14.08096˚ 31 nm 31 nm 95° / 96° -
O LKTB APT - 0 ft / 0 m 49.15102˚ 16.69317˚ 106 nm 137 nm 105° / 107° Turany

Altitude Profile

Advertisement - Login to hide

LKLN

Details ICAO LKLN
Name Plzen - Line
Region Czech Republic
Timezone Europe/Prague (UTC+2.0)
Stats Elevation 1,187 ft / 362 m (AMSL)
Location 49.675230° 13.274484°
Runways 1
Magnetic Variation 3.643° E

METAR

LKLN 250000Z AUTO 00000KT 5000 OVC077 14/14 Q1020

Decode

TAF

Not found

Departure Runways

ID Width Length Bearing (true) Bearing (mag) Surface Threshold Offset Overrun Length
06 197 ft / 60 m 4,755 ft / 1,449 m 58.19° 54.55° Concrete 0 ft / 0 m 2,477 ft / 755 m
24 197 ft / 60 m 4,755 ft / 1,449 m 238.21° 234.57° Concrete 0 ft / 0 m 784 ft / 239 m

LKTB

Details ICAO LKTB (BRQ)
Name Turany
Region Czech Republic
Timezone Europe/Prague (UTC+2.0)
Stats Elevation 777 ft / 237 m (AMSL)
Location 49.151016° 16.693171°
Runways 2
Magnetic Variation 4.431° E

METAR

LKTB 250000Z 06009KT CAVOK 19/10 Q1018 NOSIG

Decode

TAF

TAF LKTB 242300Z 2500/2606 06010KT 9999 SCT040 TEMPO 2500/2520 12012G22KT 8000 SHRA SCT025TCU PROB30 TEMPO 2504/2512 6000 TSRA SCT023CB

Decode

Destination Runways

ID Width Length Bearing (true) Bearing (mag) Surface Threshold Offset Overrun Length
09 98 ft / 30 m 3,272 ft / 997 m 97.50° 93.07° Grass 0 ft / 0 m 0 ft / 0 m
10 197 ft / 60 m 8,674 ft / 2,644 m 97.52° 93.09° Concrete 0 ft / 0 m 0 ft / 0 m
27 98 ft / 30 m 3,272 ft / 997 m 277.51° 273.08° Grass 0 ft / 0 m 0 ft / 0 m
28 197 ft / 60 m 8,674 ft / 2,644 m 277.55° 273.12° Concrete 0 ft / 0 m 0 ft / 0 m

Approach Navaids

Runway Type Ident Frequency Range Bearing (true) Bearing (mag) Slope Elevation
28 Localiser BO 111.50 MHz 18 nm / 33 km 277.51° 273.08° - 771 ft / 235 m (AMSL)
28 Glidescope BO 111.50 MHz 10 nm / 19 km 277.53° 273.10° 3.00° 771 ft / 235 m (AMSL)
28 DME BO 111.50 MHz 18 nm / 33 km - - - 785 ft / 239 m (AMSL)